"Pseudo-MPEC" for C43J4J1

Created 2024 Oct 3 10:22:05 UT using Find_Orb

Click here for an explanation of pseudo-MPECs

 
 Astrometry: 
     C43J4J1*1C2024 10 01.44282402 37 14.408+15 21 55.44   ~A1CM 20.17GVNEOCP703
     C43J4J1 1C2024 10 01.44509702 37 15.395+15 21 11.52   ~A1CM 19.42GVNEOCP703
     C43J4J1 1C2024 10 01.44738402 37 16.370+15 20 25.76   ~A1CM 19.53GVNEOCP703
     C43J4J1 1C2024 10 01.44965902 37 17.274+15 19 40.48   ~A1CMx19.23GVNEOCP703
     C43J4J1 KC2024 10 01.49183502 37 36.178+15 05 45.20   ~A1CM 19.64GVNEOCPI52
     C43J4J1 KC2024 10 01.49350302 37 36.926+15 05 12.05   ~A1CM 19.75GVNEOCPI52
     C43J4J1 KC2024 10 01.49516502 37 37.668+15 04 38.96   ~A1CM 19.59GVNEOCPI52
     C43J4J1 KC2024 10 02.29288302 44 33.781+10 42 11.05   ~A27M       VNEOCPI52
     C43J4J1 KC2024 10 02.29436502 44 34.472+10 41 41.71   ~A27M 19.53GVNEOCPI52
     C43J4J1 KB2024 10 02.96767102 49 59.36 +06 59 57.2    ~A2Nq 19.2 GXNEOCPI93
     C43J4J1 KB2024 10 02.97197002 50 01.20 +06 58 33.5    ~A2Nq 19.8 GXNEOCPI93
     C43J4J1 KB2024 10 02.97578702 50 02.83 +06 57 18.9    ~A2Nq 19.8 GXNEOCPI93
     C43J4J1 |C2024 10 03.18772102 51 42.980+05 52 38.90   ~A367 19.7 GVNEOCP807
     C43J4J1 |C2024 10 03.18901002 51 43.480+05 52 13.40   ~A367 19.9 GVNEOCP807
     C43J4J1 |C2024 10 03.19034002 51 44.010+05 51 47.40   ~A367 19.7 GVNEOCP807
     C43J4J1 KC2024 10 03.25810702 52 13.71 +05 25 40.3    ~A377 19.9 GVNEOCPH21
     C43J4J1 KC2024 10 03.26003602 52 14.48 +05 25 02.7    ~A377 19.9 GVNEOCPH21
     C43J4J1 KC2024 10 03.26196502 52 15.26 +05 24 25.2    ~A377 19.9 GVNEOCPH21
     C43J4J1 KC2024 10 03.26389302 52 16.04 +05 23 47.7    ~A377 19.8 GVNEOCPH21

Station data:
(703) Catalina Sky Survey  (N32.417029 W110.732640)  US/Arizona.  Observer E.
   J. Christensen. 0.68 m Schmidt + 10K CCD.
(807) Cerro Tololo Observatory, La Serena  (S30.169133 W70.805900)  Chile.
   Observer R. Holmes. 0.61-m f/6.5 astrograph + CCD.
(H21) Astronomical Research Observatory, Westfield  (N39.483054 W87.968270)
   US/Illinois.  Observer R. Holmes. Measurers S. Foglia, L. Buzzi, T.
   Linder, R. Holmes. 0.76-m f/3.0 astrograph + CCD0.81-m f/4.0 astrograph +
   CCD0.61-m f/4.5 astrograph + CCD0.40-m f/5.32 astrograph + CCD.
(I52) Steward Observatory, Mt. Lemmon Station  (N32.442570 W110.788920)
   US/Arizona.  Observers T. A. Pruyne, B. M. Africano, E. J. Christensen, G.
   A. Farneth, D. C. Fuls, A. R. Gibbs, A. D. Grauer, H. Gröller, J. A.
   Johnson, R. A. Kowalski, S. M. Larson, G. J. Leonard, D. Rankin, R. L.
   Seaman, F. C. Shelly, K. W. Wierzchoś. 1.0-m prime focus + CCD.
(I93) St Pardon de Conques  (N44.558670 W0.202960)  France.  Observers F.
   Losse, W. D'Anna. Measurer F. Losse. 0.40-m f/3.7 reflector + CCD.

Orbital elements:  C43J4J1
   Perihelion 2024 Oct 9.38535 +/- 0.0432 TT =  9:14:54 (JD 2460592.88535)
Epoch 2024 Oct  3.0 TT = JDT 2460586.5   Earth MOID: 0.0341      AutoNEOCP
M 354.87699462 +/- 0.036            (J2000 ecliptic)
n   0.80230636 +/- 0.000362         Peri.  187.79963 +/- 0.042
a   1.14703293 +/- 0.000345         Node   189.62421 +/- 0.0015
e   0.0985867 +/- 0.000229          Incl.   13.30243 +/- 0.016
P   1.228/448.698d         H 25.54  G  0.15   U  7.4
q 1.03395073 +/- 4.84e-5    Q 1.26011513 +/- 0.000641
18 of 19 observations 2024 Oct. 1-3 (43.7 hr); mean residual 0".25
Residuals in arcseconds: 
241001 703  .15+  .68-    241002 I52  .47-  .02-    241003 807  .09-  .14-    
241001 703  .02-  .34+    241002 I52  .39+  .26-    241003 H21  .11+  .05+    
241001 703  .46-  .20-    241002 I93  .41-  .12-    241003 H21  .03+  .07-    
241001 703( 1.9-  .48-)   241002 I93  .19-  .10+    241003 H21  .11+  .09-    
241001 I52  .24+  .31+    241002 I93  .03+  .02+    241003 H21  .20+  .12-    
241001 I52  .20+  .29+    241003 807  .24+  .44+    
241001 I52  .11+  .21+    241003 807  .03-  .00     

Ephemerides (geocentric):
Date (UTC) HH   RA             Dec           delta  r     elong  mag " sig PA
---- --------  ------------   ------------  ------ ------ -----  --- --------
2024 10 03 10  02 53 22.294   +04 36 23.70  .04047 1.0344 146.3 20.0 .141  86
2024 10 03 11  02 53 41.509   +04 22 56.93  .04049 1.0344 146.2 20.0 .144  81
2024 10 03 12  02 54 00.678   +04 09 31.18  .04052 1.0344 146.2 20.0 .148  77
2024 10 03 13  02 54 19.801   +03 56 06.49  .04055 1.0344 146.1 20.0 .153  72
2024 10 03 14  02 54 38.878   +03 42 42.88  .04058 1.0344 146.1 20.0 .159  68
2024 10 03 15  02 54 57.908   +03 29 20.39  .04061 1.0344 146.0 20.0 .166  63
2024 10 03 16  02 55 16.892   +03 15 59.03  .04064 1.0344 146.0 20.0 .174  59
2024 10 03 17  02 55 35.831   +03 02 38.85  .04067 1.0344 145.9 20.0 .182  55
2024 10 03 18  02 55 54.723   +02 49 19.86  .04070 1.0344 145.9 20.0 .192  52
2024 10 03 19  02 56 13.569   +02 36 02.10  .04073 1.0344 145.8 20.0 .202  49
2024 10 03 20  02 56 32.369   +02 22 45.58  .04076 1.0344 145.8 20.1 .213  46
2024 10 03 21  02 56 51.124   +02 09 30.35  .04079 1.0344 145.7 20.1 .225  43
2024 10 03 22  02 57 09.832   +01 56 16.42  .04083 1.0344 145.6 20.1 .237  40
2024 10 03 23  02 57 28.495   +01 43 03.83  .04086 1.0344 145.6 20.1 .251  38
2024 10 04 00  02 57 47.111   +01 29 52.59  .04090 1.0343 145.5 20.1 .264  35
2024 10 04 01  02 58 05.682   +01 16 42.74  .04093 1.0343 145.5 20.1 .279  33
2024 10 04 02  02 58 24.207   +01 03 34.30  .04097 1.0343 145.4 20.1 .294  31
2024 10 04 03  02 58 42.687   +00 50 27.30  .04101 1.0343 145.3 20.1 .309  30
2024 10 04 04  02 59 01.120   +00 37 21.75  .04105 1.0343 145.3 20.1 .325  28
2024 10 04 05  02 59 19.508   +00 24 17.70  .04109 1.0343 145.2 20.1 .342  26
2024 10 04 06  02 59 37.851   +00 11 15.15  .04113 1.0343 145.1 20.1 .359  25
2024 10 04 07  02 59 56.148   -00 01 45.87  .04117 1.0343 145.1 20.1 .376  24
2024 10 04 08  03 00 14.399   -00 14 45.33  .04121 1.0343 145.0 20.1 .394  22
2024 10 04 09  03 00 32.605   -00 27 43.20  .04125 1.0343 144.9 20.1 .413  21
2024 10 04 10  03 00 50.766   -00 40 39.47  .04129 1.0343 144.9 20.1 .431  20
2024 10 04 11  03 01 08.881   -00 53 34.12  .04133 1.0343 144.8 20.1 .451  19
2024 10 04 12  03 01 26.951   -01 06 27.11  .04138 1.0343 144.7 20.1 .470  18
2024 10 04 13  03 01 44.976   -01 19 18.43  .04142 1.0343 144.6 20.1 .490  17
2024 10 04 14  03 02 02.955   -01 32 08.06  .04147 1.0343 144.6 20.1 .510  16
2024 10 04 15  03 02 20.890   -01 44 55.98  .04151 1.0343 144.5 20.1 .531  15
2024 10 04 16  03 02 38.779   -01 57 42.15  .04156 1.0343 144.4 20.1 .552  14
2024 10 04 17  03 02 56.623   -02 10 26.57  .04160 1.0342 144.3 20.1 .574  14
2024 10 04 18  03 03 14.422   -02 23 09.21  .04165 1.0342 144.2 20.1 .595  13
2024 10 04 19  03 03 32.176   -02 35 50.06  .04170 1.0342 144.2 20.1 .617  12
2024 10 04 20  03 03 49.885   -02 48 29.08  .04175 1.0342 144.1 20.1 .640  12
2024 10 04 21  03 04 07.549   -03 01 06.27  .04180 1.0342 144.0 20.2 .663  11
2024 10 04 22  03 04 25.169   -03 13 41.60  .04185 1.0342 143.9 20.2 .686  11
2024 10 04 23  03 04 42.743   -03 26 15.06  .04190 1.0342 143.8 20.2 .709  10
2024 10 05 00  03 05 00.273   -03 38 46.62  .04195 1.0342 143.8 20.2 .733   9
2024 10 05 01  03 05 17.759   -03 51 16.27  .04200 1.0342 143.7 20.2 .757   9
2024 10 05 02  03 05 35.199   -04 03 43.99  .04206 1.0342 143.6 20.2 .781   8
2024 10 05 03  03 05 52.596   -04 16 09.76  .04211 1.0342 143.5 20.2 .805   8
2024 10 05 04  03 06 09.947   -04 28 33.57  .04216 1.0342 143.4 20.2 .830   7
2024 10 05 05  03 06 27.255   -04 40 55.39  .04222 1.0342 143.3 20.2 .855   7
2024 10 05 06  03 06 44.518   -04 53 15.22  .04227 1.0342 143.2 20.2 .880   7
2024 10 05 07  03 07 01.736   -05 05 33.04  .04233 1.0342 143.1 20.2 .906   6
2024 10 05 08  03 07 18.911   -05 17 48.82  .04239 1.0342 143.1 20.2 .932   6
2024 10 05 09  03 07 36.041   -05 30 02.56  .04244 1.0342 143.0 20.2 .958   5